Terug naar catalogus

ONEWEB-0018

ActiefCommunicatiePO
NORAD 45434·PAYLOAD·🇬🇧 United Kingdom

Gelanceerd Mar 21, 2020 vanaf Baikonur Cosmodrome

Loading…

Volgende Passages (komende 24 uur)

TLE

VersSource: CelesTrak SupGP

Epoch: Sep 14, 2026, 23:08 UTC

1 45434C 20020L   26257.96406667 -.00002860  00000+0 -80793-2 0  2573
2 45434  87.8974   3.2190 0002134  95.1142   5.4911 13.11420614    16

Volg ONEWEB-0018 in realtime met AllMySat

Download on the App Store